Location: Ostrava
(49.8330°N, 18.2830°E)
Time: 19:23:25
(UTC+02:00)

Cosmos 2221 - Visible Passes

Search period start: 29 April 2017 00:00
Search period end: 09 May 2017 00:00
Orbit: 593 x 617 km, 82.5° (Epoch: 27 April)

Date Brightness Start Highest point End Pass type
(mag) Time Alt. Az. Time Alt. Az. Time Alt. Az.
29 Apr 5.0 03:39:29 10° NNE 03:43:00 24° ENE 03:46:28 10° ESE visible
30 Apr 4.1 03:52:14 10° N 03:56:14 36° ENE 04:00:11 10° SE visible
01 May 3.2 04:05:09 10° N 04:09:23 57° ENE 04:13:36 10° SSE visible
02 May 5.6 02:42:31 10° NE 02:44:13 12° ENE 02:45:54 10° E visible
02 May 2.5 04:18:11 10° N 04:22:30 88° W 04:26:46 10° S visible
03 May 5.3 02:54:36 10° NNE 02:57:35 18° ENE 03:00:32 10° ESE visible
03 May 2.6 04:31:20 10° NNW 04:35:32 54° W 04:39:41 10° S visible
04 May 4.6 03:07:12 10° N 03:10:51 27° ENE 03:14:30 10° SE visible
05 May 3.8 03:20:00 10° N 03:24:04 41° ENE 03:28:07 10° SE visible
06 May 2.8 03:32:56 10° N 03:37:13 66° ENE 03:41:27 10° SSE visible
07 May 5.3 02:09:56 10° NNE 02:12:07 14° ENE 02:14:17 10° E visible
07 May 2.4 03:46:00 10° NNW 03:50:18 77° W 03:54:33 10° S visible
08 May 4.9 02:22:14 10° NNE 02:25:27 20° ENE 02:28:38 10° ESE visible
08 May 2.8 03:59:11 10° NNW 04:03:18 47° W 04:07:23 10° SSW visible
